| time (UTC) | temp F | wind direction | speed MPH | gust MPH | rain 1hr in | rain 24hr in | rain mn in | humidity % | barometer mb |
| 20260507075440 | 51 | 336 | 0.0 | 1.0 | 0.00 | 0.00 | 0.00 | 55 | 1010.3 |
| 20260507074937 | 51 | 276 | 2.0 | 2.0 | 0.00 | 0.00 | 0.00 | 53 | 1010.3 |
| 20260507074433 | 51 | 4 | 3.0 | 6.0 | 0.00 | 0.00 | 0.00 | 52 | 1010.3 |
| 20260507073932 | 51 | 253 | 2.0 | 2.0 | 0.00 | 0.00 | 0.00 | 54 | 1010.4 |
| 20260507073428 | 52 | 321 | 1.0 | 1.0 | 0.00 | 0.00 | 0.00 | 51 | 1010.7 |
| 20260507072924 | 52 | 12 | 3.0 | 4.0 | 0.00 | 0.00 | 0.00 | 54 | 1010.6 |
| 20260507072422 | 52 | 305 | 2.0 | 2.0 | 0.00 | 0.00 | 0.00 | 53 | 1010.4 |
| 20260507071920 | 52 | 284 | 1.0 | 1.0 | 0.00 | 0.00 | 0.00 | 55 | 1010.3 |
| 20260507071416 | 52 | 282 | 1.0 | 1.0 | 0.00 | 0.00 | 0.00 | 52 | 1010.4 |
| 20260507070913 | 52 | 349 | 0.0 | 1.0 | 0.00 | 0.00 | 0.00 | 53 | 1010.5 |
| 20260507070410 | 52 | 258 | 1.0 | 1.0 | 0.00 | 0.00 | 0.00 | 54 | 1010.5 |
| 20260507065907 | 52 | 176 | 1.0 | 2.0 | 0.00 | 0.00 | 0.00 | 56 | 1010.6 |
| 20260507065403 | 52 | 309 | 2.0 | 2.0 | 0.00 | 0.00 | 0.00 | 54 | 1010.6 |
| 20260507064900 | 52 | 292 | 1.0 | 1.0 | 0.00 | 0.00 | 0.00 | 53 | 1010.6 |
| 20260507064359 | 52 | 317 | 1.0 | 2.0 | 0.00 | 0.00 | 0.00 | 55 | 1010.5 |
| 20260507063856 | 53 | 199 | 0.0 | 0.0 | 0.00 | 0.00 | 0.00 | 55 | 1010.4 |
| 20260507063353 | 53 | 260 | 2.0 | 2.0 | 0.00 | 0.00 | 0.00 | 54 | 1010.4 |
| 20260507062850 | 53 | 278 | 1.0 | 2.0 | 0.00 | 0.00 | 0.00 | 54 | 1010.2 |
| 20260507062346 | 53 | 265 | 1.0 | 2.0 | 0.00 | 0.00 | 0.00 | 58 | 1010.5 |
| 20260507061844 | 53 | 211 | 1.0 | 2.0 | 0.00 | 0.00 | 0.00 | 57 | 1010.3 |
| 20260507061342 | 53 | 294 | 1.0 | 1.0 | 0.00 | 0.00 | 0.00 | 57 | 1010.5 |
| 20260507060841 | 52 | 347 | 2.0 | 3.0 | 0.00 | 0.00 | 0.00 | 60 | 1010.7 |
| 20260507060337 | 53 | 299 | 4.0 | 4.0 | 0.00 | 0.00 | 0.00 | 62 | 1010.5 |
| 20260507055834 | 53 | 354 | 0.0 | 1.0 | 0.00 | 0.00 | 0.00 | 63 | 1010.6 |
| 20260507055329 | 53 | 247 | 3.0 | 4.0 | 0.00 | 0.00 | 0.00 | 62 | 1010.6 |
| 20260507054826 | 53 | 319 | 2.0 | 3.0 | 0.00 | 0.00 | 0.00 | 66 | 1010.6 |
| 20260507054322 | 53 | 311 | 2.0 | 3.0 | 0.00 | 0.00 | 0.00 | 70 | 1010.4 |
| 20260507053820 | 53 | 27 | 2.0 | 3.0 | 0.00 | 0.00 | 0.00 | 71 | 1010.4 |
| 20260507053317 | 53 | 342 | 0.0 | 0.0 | 0.00 | 0.00 | 0.00 | 74 | 1010.4 |
| 20260507052816 | 53 | 314 | 3.0 | 3.0 | 0.00 | 0.00 | 0.00 | 73 | 1010.6 |
| 20260507052312 | 53 | 196 | 3.0 | 6.0 | 0.00 | 0.00 | 0.00 | 73 | 1010.6 |
| 20260507051810 | 53 | 203 | 2.0 | 2.0 | 0.00 | 0.00 | 0.00 | 73 | 1010.5 |
| 20260507051307 | 54 | 332 | 2.0 | 2.0 | 0.00 | 0.00 | 0.00 | 74 | 1010.3 |
| 20260507050804 | 54 | 323 | 1.0 | 2.0 | 0.00 | 0.00 | 0.00 | 73 | 1010.4 |
| 20260507050300 | 54 | 340 | 1.0 | 2.0 | 0.00 | 0.00 | 0.00 | 72 | 1010.5 |
| 20260507045757 | 54 | 332 | 1.0 | 1.0 | 0.00 | 0.00 | 0.00 | 73 | 1010.5 |
| 20260507045253 | 54 | 296 | 1.0 | 1.0 | 0.00 | 0.00 | 0.00 | 72 | 1010.2 |
| 20260507044751 | 54 | 323 | 1.0 | 1.0 | 0.00 | 0.00 | 0.00 | 72 | 1010.2 |
| 20260507044247 | 55 | 314 | 2.0 | 2.0 | 0.00 | 0.00 | 0.00 | 71 | 1010.5 |
| 20260507043743 | 55 | 284 | 3.0 | 4.0 | 0.00 | 0.00 | 0.00 | 69 | 1010.6 |
| 20260507043240 | 55 | 295 | 1.0 | 1.0 | 0.00 | 0.00 | 0.00 | 70 | 1010.7 |
| 20260507042736 | 55 | 338 | 4.0 | 4.0 | 0.00 | 0.00 | 0.00 | 71 | 1010.5 |
| 20260507042232 | 55 | 230 | 3.0 | 3.0 | 0.00 | 0.00 | 0.00 | 73 | 1010.5 |
| 20260507041730 | 55 | 172 | 2.0 | 2.0 | 0.00 | 0.00 | 0.00 | 73 | 1010.4 |
| 20260507041226 | 55 | 253 | 1.0 | 1.0 | 0.00 | 0.00 | 0.00 | 74 | 1010.3 |
| 20260507040723 | 55 | 341 | 2.0 | 2.0 | 0.00 | 0.00 | 0.00 | 73 | 1010.3 |
| 20260507040219 | 55 | 312 | 0.0 | 0.0 | 0.00 | 0.00 | 0.00 | 73 | 1010.5 |
| 20260507035715 | 55 | 332 | 2.0 | 2.0 | 0.00 | 0.29 | 0.29 | 72 | 1010.3 |
| 20260507035211 | 55 | 128 | 1.0 | 1.0 | 0.00 | 0.29 | 0.29 | 73 | 1010.4 |
| 20260507034708 | 55 | 64 | 1.0 | 1.0 | 0.00 | 0.29 | 0.29 | 72 | 1010.5 |
| 20260507034205 | 55 | 318 | 2.0 | 2.0 | 0.00 | 0.29 | 0.29 | 71 | 1010.3 |
| 20260507033704 | 55 | 310 | 1.0 | 1.0 | 0.00 | 0.29 | 0.29 | 72 | 1010.5 |
| 20260507033201 | 55 | 329 | 1.0 | 2.0 | 0.00 | 0.29 | 0.29 | 73 | 1010.2 |
| 20260507032658 | 55 | 63 | 0.0 | 0.0 | 0.00 | 0.29 | 0.29 | 76 | 1010.2 |
| 20260507032153 | 55 | 348 | 3.0 | 6.0 | 0.00 | 0.29 | 0.29 | 73 | 1010.1 |
| 20260507031651 | 55 | 300 | 1.0 | 1.0 | 0.00 | 0.29 | 0.29 | 73 | 1010.0 |
| 20260507031147 | 56 | 317 | 0.0 | 1.0 | 0.00 | 0.29 | 0.29 | 74 | 1010.0 |
| 20260507030644 | 56 | 339 | 2.0 | 3.0 | 0.00 | 0.29 | 0.29 | 74 | 1009.8 |
| 20260507030142 | 56 | 273 | 0.0 | 1.0 | 0.00 | 0.29 | 0.29 | 74 | 1010.0 |
| 20260507025639 | 56 | 351 | 1.0 | 2.0 | 0.00 | 0.29 | 0.29 | 72 | 1009.9 |
| 20260507025136 | 56 | 352 | 4.0 | 6.0 | 0.00 | 0.29 | 0.29 | 73 | 1009.8 |
| 20260507024634 | 56 | 22 | 1.0 | 1.0 | 0.00 | 0.29 | 0.29 | 73 | 1009.8 |
| 20260507024131 | 56 | 313 | 3.0 | 3.0 | 0.00 | 0.29 | 0.29 | 72 | 1010.0 |
| 20260507023626 | 56 | 317 | 1.0 | 1.0 | 0.00 | 0.29 | 0.29 | 73 | 1010.2 |
| 20260507023124 | 56 | 298 | 2.0 | 3.0 | 0.00 | 0.29 | 0.29 | 72 | 1010.2 |
| 20260507022620 | 56 | 321 | 1.0 | 1.0 | 0.00 | 0.29 | 0.29 | 73 | 1010.1 |
| 20260507022115 | 57 | 312 | 1.0 | 2.0 | 0.00 | 0.29 | 0.29 | 75 | 1010.3 |
| 20260507021612 | 57 | 41 | 0.0 | 1.0 | 0.00 | 0.29 | 0.29 | 74 | 1009.9 |
| 20260507021108 | 57 | 322 | 0.0 | 1.0 | 0.00 | 0.29 | 0.29 | 74 | 1009.9 |
| 20260507020607 | 57 | 64 | 0.0 | 1.0 | 0.00 | 0.29 | 0.29 | 74 | 1009.7 |
| 20260507015601 | 57 | 338 | 1.0 | 1.0 | 0.00 | 0.29 | 0.29 | 76 | 1009.9 |
| 20260507015058 | 57 | 338 | 5.0 | 6.0 | 0.00 | 0.29 | 0.29 | 76 | 1010.1 |
| 20260507014555 | 57 | 337 | 2.0 | 3.0 | 0.00 | 0.29 | 0.29 | 76 | 1010.0 |
| 20260507014050 | 57 | 274 | 3.0 | 4.0 | 0.00 | 0.29 | 0.29 | 75 | 1009.9 |
| 20260507013547 | 58 | 344 | 3.0 | 4.0 | 0.00 | 0.29 | 0.29 | 75 | 1010.1 |
| 20260507013045 | 58 | 288 | 4.0 | 4.0 | 0.00 | 0.29 | 0.29 | 74 | 1010.2 |
| 20260507012542 | 58 | 11 | 2.0 | 2.0 | 0.00 | 0.29 | 0.29 | 74 | 1009.9 |
| 20260507012037 | 58 | 284 | 3.0 | 3.0 | 0.00 | 0.29 | 0.29 | 74 | 1009.9 |
| 20260507011535 | 58 | 211 | 2.0 | 3.0 | 0.00 | 0.29 | 0.29 | 74 | 1010.0 |
| 20260507011031 | 59 | 324 | 2.0 | 2.0 | 0.00 | 0.29 | 0.29 | 74 | 1009.7 |
| 20260507010526 | 59 | 322 | 2.0 | 4.0 | 0.00 | 0.29 | 0.29 | 74 | 1009.5 |
| 20260507010023 | 59 | 6 | 2.0 | 3.0 | 0.00 | 0.29 | 0.29 | 74 | 1009.6 |
| 20260507005520 | 59 | 337 | 1.0 | 2.0 | 0.00 | 0.29 | 0.29 | 76 | 1009.5 |
| 20260507005017 | 59 | 221 | 2.0 | 3.0 | 0.00 | 0.29 | 0.29 | 74 | 1009.6 |
| 20260507004514 | 59 | 15 | 1.0 | 1.0 | 0.00 | 0.29 | 0.29 | 75 | 1009.4 |
| 20260507004011 | 59 | 258 | 3.0 | 4.0 | 0.00 | 0.29 | 0.29 | 74 | 1009.4 |
| 20260507003506 | 59 | 351 | 1.0 | 1.0 | 0.00 | 0.29 | 0.29 | 74 | 1009.3 |
| 20260507003001 | 59 | 291 | 0.0 | 0.0 | 0.00 | 0.29 | 0.29 | 76 | 1009.4 |
| 20260507002458 | 59 | 85 | 0.0 | 0.0 | 0.00 | 0.29 | 0.29 | 75 | 1009.4 |
| 20260507001955 | 60 | 329 | 2.0 | 2.0 | 0.00 | 0.29 | 0.29 | 75 | 1009.0 |
| 20260507001451 | 60 | 304 | 0.0 | 1.0 | 0.00 | 0.29 | 0.29 | 75 | 1008.6 |
| 20260507000949 | 60 | 283 | 1.0 | 1.0 | 0.00 | 0.29 | 0.29 | 75 | 1008.8 |
| 20260507000444 | 60 | 272 | 2.0 | 2.0 | 0.00 | 0.29 | 0.29 | 75 | 1008.5 |
| 20260506235940 | 60 | 231 | 0.0 | 0.0 | 0.00 | 0.29 | 0.29 | 76 | 1008.4 |
| 20260506235438 | 61 | 256 | 0.0 | 1.0 | 0.00 | 0.29 | 0.29 | 75 | 1008.1 |
| 20260506234933 | 61 | 330 | 2.0 | 3.0 | 0.00 | 0.29 | 0.29 | 74 | 1008.0 |
| 20260506234431 | 61 | 283 | 5.0 | 7.0 | 0.00 | 0.29 | 0.29 | 76 | 1008.0 |
| 20260506233928 | 61 | 287 | 0.0 | 1.0 | 0.00 | 0.29 | 0.29 | 75 | 1007.8 |
| 20260506233425 | 61 | 230 | 2.0 | 3.0 | 0.00 | 0.29 | 0.29 | 76 | 1008.0 |
| 20260506232921 | 61 | 16 | 3.0 | 3.0 | 0.00 | 0.29 | 0.29 | 75 | 1007.6 |
| 20260506232418 | 62 | 247 | 1.0 | 1.0 | 0.00 | 0.29 | 0.29 | 76 | 1007.7 |
| 20260506231914 | 62 | 358 | 1.0 | 2.0 | 0.00 | 0.29 | 0.29 | 75 | 1007.5 |
| 20260506231411 | 62 | 328 | 4.0 | 8.0 | 0.00 | 0.29 | 0.29 | 74 | 1007.5 |
| 20260506230908 | 62 | 203 | 0.0 | 0.0 | 0.00 | 0.29 | 0.29 | 75 | 1007.5 |
| 20260506230405 | 62 | 6 | 1.0 | 2.0 | 0.00 | 0.29 | 0.29 | 76 | 1007.3 |
| 20260506225901 | 63 | 300 | 1.0 | 1.0 | 0.00 | 0.29 | 0.29 | 77 | 1007.4 |
| 20260506225359 | 63 | 341 | 3.0 | 4.0 | 0.00 | 0.29 | 0.29 | 77 | 1007.3 |
| 20260506224855 | 63 | 309 | 4.0 | 7.0 | 0.00 | 0.29 | 0.29 | 77 | 1007.5 |
| 20260506224353 | 63 | 340 | 5.0 | 7.0 | 0.00 | 0.29 | 0.29 | 77 | 1007.5 |
| 20260506223849 | 63 | 21 | 2.0 | 4.0 | 0.00 | 0.29 | 0.29 | 77 | 1007.5 |
| 20260506223344 | 64 | 315 | 1.0 | 1.0 | 0.00 | 0.29 | 0.29 | 78 | 1007.4 |
| 20260506222842 | 64 | 0 | 2.0 | 2.0 | 0.00 | 0.29 | 0.29 | 77 | 1007.2 |
| 20260506222337 | 64 | 351 | 2.0 | 2.0 | 0.00 | 0.29 | 0.29 | 78 | 1007.2 |
| 20260506221835 | 65 | 272 | 1.0 | 1.0 | 0.00 | 0.29 | 0.29 | 77 | 1007.2 |
| 20260506221332 | 65 | 37 | 2.0 | 3.0 | 0.00 | 0.29 | 0.29 | 78 | 1007.0 |
| 20260506220830 | 64 | 292 | 4.0 | 4.0 | 0.00 | 0.29 | 0.29 | 82 | 1006.9 |
| 20260506220325 | 65 | 212 | 0.0 | 0.0 | 0.00 | 0.29 | 0.29 | 88 | 1006.8 |
| 20260506215822 | 65 | 246 | 0.0 | 0.0 | 0.00 | 0.29 | 0.29 | 88 | 1006.7 |
| 20260506215318 | 65 | 221 | 1.0 | 1.0 | 0.00 | 0.29 | 0.29 | 88 | 1006.6 |
| 20260506214814 | 65 | 229 | 0.0 | 0.0 | 0.00 | 0.29 | 0.29 | 87 | 1006.4 |
| 20260506214311 | 65 | 202 | 0.0 | 0.0 | 0.00 | 0.29 | 0.29 | 87 | 1006.5 |
| 20260506213810 | 65 | 188 | 1.0 | 1.0 | 0.00 | 0.29 | 0.29 | 86 | 1006.4 |
| 20260506213306 | 66 | 271 | 0.0 | 1.0 | 0.00 | 0.29 | 0.29 | 86 | 1006.5 |
| 20260506212804 | 66 | 255 | 0.0 | 0.0 | 0.00 | 0.29 | 0.29 | 85 | 1006.1 |
| 20260506212259 | 66 | 262 | 0.0 | 0.0 | 0.00 | 0.29 | 0.29 | 85 | 1005.9 |
| 20260506211754 | 66 | 204 | 0.0 | 0.0 | 0.00 | 0.29 | 0.29 | 84 | 1005.9 |
| 20260506211251 | 67 | 8 | 0.0 | 0.0 | 0.00 | 0.29 | 0.29 | 85 | 1005.7 |
| 20260506210748 | 67 | 318 | 2.0 | 2.0 | 0.00 | 0.29 | 0.29 | 84 | 1005.6 |
| 20260506210245 | 67 | 226 | 0.0 | 0.0 | 0.00 | 0.29 | 0.29 | 86 | 1005.9 |
| 20260506205742 | 67 | 174 | 1.0 | 1.0 | 0.00 | 0.29 | 0.29 | 83 | 1005.8 |
| 20260506205237 | 67 | 125 | 1.0 | 1.0 | 0.00 | 0.29 | 0.29 | 81 | 1005.7 |
| 20260506204734 | 67 | 289 | 1.0 | 1.0 | 0.00 | 0.29 | 0.29 | 82 | 1005.9 |
| 20260506204232 | 67 | 265 | 2.0 | 4.0 | 0.00 | 0.29 | 0.29 | 81 | 1005.9 |
| 20260506203730 | 67 | 72 | 0.0 | 1.0 | 0.00 | 0.29 | 0.29 | 81 | 1005.8 |
| 20260506203226 | 68 | 2 | 3.0 | 3.0 | 0.00 | 0.29 | 0.29 | 81 | 1005.8 |
| 20260506202724 | 68 | 315 | 1.0 | 1.0 | 0.00 | 0.29 | 0.29 | 82 | 1005.7 |
| 20260506202220 | 68 | 330 | 1.0 | 2.0 | 0.00 | 0.29 | 0.29 | 83 | 1005.6 |
| 20260506201717 | 68 | 330 | 1.0 | 1.0 | 0.00 | 0.29 | 0.29 | 82 | 1005.7 |
| 20260506201214 | 67 | 287 | 1.0 | 2.0 | 0.00 | 0.29 | 0.29 | 84 | 1005.7 |
| 20260506200711 | 67 | 293 | 2.0 | 2.0 | 0.00 | 0.29 | 0.29 | 82 | 1005.7 |
| 20260506200208 | 67 | 285 | 1.0 | 1.0 | 0.00 | 0.29 | 0.29 | 84 | 1005.6 |
| 20260506195705 | 66 | 295 | 1.0 | 2.0 | 0.00 | 0.29 | 0.29 | 86 | 1005.6 |
| 20260506195201 | 66 | 7 | 0.0 | 1.0 | 0.00 | 0.29 | 0.29 | 84 | 1005.7 |
| 20260506194658 | 66 | 38 | 1.0 | 2.0 | 0.00 | 0.29 | 0.29 | 85 | 1005.8 |
| 20260506194154 | 66 | 55 | 0.0 | 1.0 | 0.00 | 0.29 | 0.29 | 86 | 1005.9 |
| 20260506193652 | 65 | 35 | 0.0 | 0.0 | 0.00 | 0.29 | 0.29 | 88 | 1005.9 |
| 20260506193149 | 64 | 316 | 1.0 | 1.0 | 0.00 | 0.29 | 0.29 | 89 | 1005.9 |
| 20260506192645 | 64 | 7 | 0.0 | 0.0 | 0.00 | 0.29 | 0.29 | 90 | 1006.1 |
| 20260506192141 | 64 | 238 | 0.0 | 0.0 | 0.00 | 0.29 | 0.29 | 90 | 1006.3 |
| 20260506191639 | 64 | 39 | 2.0 | 2.0 | 0.00 | 0.29 | 0.29 | 90 | 1006.0 |
| 20260506191135 | 64 | 184 | 0.0 | 0.0 | 0.00 | 0.29 | 0.29 | 90 | 1006.2 |
| 20260506190632 | 64 | 342 | 1.0 | 1.0 | 0.00 | 0.29 | 0.29 | 90 | 1006.3 |
| 20260506190129 | 64 | 152 | 0.0 | 1.0 | 0.00 | 0.29 | 0.29 | 90 | 1006.1 |
| 20260506185626 | 64 | 311 | 0.0 | 0.0 | 0.00 | 0.29 | 0.29 | 90 | 1006.2 |
| 20260506185122 | 64 | 298 | 0.0 | 0.0 | 0.00 | 0.29 | 0.29 | 91 | 1006.2 |
| 20260506184620 | 64 | 328 | 1.0 | 2.0 | 0.00 | 0.29 | 0.29 | 92 | 1006.1 |
| 20260506184117 | 63 | 311 | 0.0 | 0.0 | 0.00 | 0.29 | 0.29 | 92 | 1006.4 |
| 20260506183614 | 63 | 9 | 0.0 | 0.0 | 0.00 | 0.29 | 0.29 | 92 | 1006.4 |
| 20260506183109 | 63 | 248 | 0.0 | 0.0 | 0.00 | 0.29 | 0.29 | 92 | 1006.2 |
| 20260506182608 | 63 | 355 | 1.0 | 1.0 | 0.00 | 0.29 | 0.29 | 93 | 1006.4 |
| 20260506182104 | 62 | 273 | 0.0 | 1.0 | 0.00 | 0.29 | 0.29 | 94 | 1006.2 |
| 20260506181602 | 62 | 348 | 1.0 | 1.0 | 0.00 | 0.29 | 0.29 | 94 | 1006.4 |
| 20260506181059 | 62 | 295 | 1.0 | 1.0 | 0.00 | 0.29 | 0.29 | 94 | 1006.3 |
| 20260506180555 | 62 | 323 | 0.0 | 0.0 | 0.00 | 0.29 | 0.29 | 94 | 1006.4 |
| 20260506180052 | 62 | 79 | 0.0 | 1.0 | 0.00 | 0.29 | 0.29 | 94 | 1006.3 |
| 20260506175548 | 62 | 342 | 1.0 | 1.0 | 0.00 | 0.29 | 0.29 | 95 | 1006.6 |
| 20260506175045 | 61 | 1 | 1.0 | 1.0 | 0.00 | 0.29 | 0.29 | 94 | 1006.5 |
| 20260506174544 | 62 | 292 | 0.0 | 0.0 | 0.00 | 0.29 | 0.29 | 95 | 1006.6 |
| 20260506174039 | 61 | 70 | 1.0 | 1.0 | 0.00 | 0.29 | 0.29 | 95 | 1006.2 |
| 20260506173537 | 61 | 95 | 1.0 | 1.0 | 0.00 | 0.29 | 0.29 | 95 | 1006.3 |
| 20260506173034 | 61 | 349 | 0.0 | 0.0 | 0.05 | 0.29 | 0.29 | 95 | 1006.3 |
| 20260506172531 | 61 | 345 | 0.0 | 0.0 | 0.05 | 0.29 | 0.29 | 95 | 1006.4 |
| 20260506172027 | 61 | 277 | 0.0 | 0.0 | 0.00 | 0.28 | 0.28 | 95 | 1006.4 |
| 20260506171525 | 61 | 251 | 1.0 | 1.0 | 0.00 | 0.28 | 0.28 | 94 | 1006.5 |
| 20260506171022 | 61 | 273 | 0.0 | 0.0 | 0.00 | 0.28 | 0.28 | 95 | 1006.5 |
| 20260506170520 | 61 | 347 | 2.0 | 2.0 | 0.00 | 0.28 | 0.28 | 94 | 1006.5 |
| 20260506170017 | 61 | 264 | 1.0 | 2.0 | 0.00 | 0.28 | 0.28 | 95 | 1006.6 |
| 20260506165516 | 61 | 321 | 1.0 | 1.0 | 0.07 | 0.28 | 0.28 | 95 | 1006.5 |
| 20260506165011 | 61 | 69 | 0.0 | 0.0 | 0.07 | 0.28 | 0.28 | 95 | 1006.4 |
| 20260506164508 | 60 | 296 | 1.0 | 1.0 | 0.00 | 0.27 | 0.27 | 95 | 1006.4 |
| 20260506164006 | 60 | 166 | 1.0 | 1.0 | 0.00 | 0.27 | 0.27 | 94 | 1006.4 |
| 20260506163501 | 60 | 11 | 0.0 | 1.0 | 0.00 | 0.27 | 0.27 | 94 | 1006.6 |
| 20260506162956 | 60 | 319 | 3.0 | 4.0 | 0.00 | 0.27 | 0.27 | 94 | 1006.6 |
| 20260506162454 | 60 | 280 | 0.0 | 0.0 | 0.00 | 0.27 | 0.27 | 94 | 1006.6 |
| 20260506161951 | 60 | 206 | 0.0 | 0.0 | 0.00 | 0.27 | 0.27 | 94 | 1006.8 |
| 20260506161449 | 60 | 332 | 2.0 | 2.0 | 0.00 | 0.27 | 0.27 | 94 | 1006.6 |
| 20260506160946 | 60 | 52 | 0.0 | 0.0 | 0.00 | 0.27 | 0.27 | 94 | 1006.8 |
| 20260506160443 | 60 | 76 | 0.0 | 0.0 | 0.00 | 0.27 | 0.27 | 94 | 1006.6 |
| 20260506155940 | 60 | 217 | 0.0 | 1.0 | 0.00 | 0.27 | 0.27 | 93 | 1006.5 |
| 20260506155438 | 60 | 335 | 2.0 | 3.0 | 0.00 | 0.27 | 0.27 | 94 | 1006.4 |
| 20260506153605 | 60 | 216 | 0.0 | 0.0 | 0.00 | 0.27 | 0.27 | 93 | 1006.6 |
| 20260506153102 | 60 | 7 | 0.0 | 0.0 | 0.00 | 0.27 | 0.27 | 93 | 1006.7 |
| 20260506152559 | 60 | 110 | 0.0 | 0.0 | 0.00 | 0.27 | 0.27 | 93 | 1006.7 |
| 20260506152057 | 60 | 307 | 4.0 | 4.0 | 0.00 | 0.27 | 0.27 | 93 | 1006.5 |
| 20260506151555 | 60 | 168 | 1.0 | 1.0 | 0.00 | 0.27 | 0.27 | 93 | 1006.2 |
| 20260506151052 | 60 | 29 | 0.0 | 1.0 | 0.00 | 0.27 | 0.27 | 93 | 1006.2 |
| 20260506150548 | 60 | 69 | 1.0 | 1.0 | 0.05 | 0.27 | 0.27 | 93 | 1006.1 |
| 20260506150045 | 60 | 86 | 0.0 | 0.0 | 0.12 | 0.27 | 0.27 | 93 | 1006.3 |
| 20260506145541 | 60 | 350 | 1.0 | 2.0 | 0.14 | 0.26 | 0.26 | 93 | 1006.7 |
| 20260506145039 | 60 | 280 | 1.0 | 1.0 | 0.19 | 0.25 | 0.25 | 93 | 1006.7 |
| 20260506144536 | 60 | 18 | 4.0 | 4.0 | 0.17 | 0.24 | 0.24 | 93 | 1006.8 |
| 20260506144033 | 60 | 292 | 1.0 | 2.0 | 0.12 | 0.22 | 0.22 | 93 | 1006.7 |
| 20260506143531 | 60 | 349 | 1.0 | 1.0 | 0.12 | 0.21 | 0.21 | 93 | 1006.8 |
| 20260506143029 | 60 | 137 | 0.0 | 0.0 | 0.17 | 0.20 | 0.20 | 93 | 1007.1 |
| 20260506142526 | 60 | 58 | 4.0 | 6.0 | 0.19 | 0.19 | 0.19 | 92 | 1007.1 |
| 20260506142024 | 60 | 295 | 1.0 | 1.0 | 0.19 | 0.17 | 0.17 | 92 | 1007.3 |
| 20260506141522 | 60 | 331 | 5.0 | 8.0 | 0.24 | 0.16 | 0.16 | 92 | 1007.2 |
| 20260506141020 | 60 | 327 | 1.0 | 2.0 | 0.19 | 0.14 | 0.14 | 92 | 1007.1 |
| 20260506140517 | 60 | 121 | 1.0 | 1.0 | 0.07 | 0.12 | 0.12 | 92 | 1006.9 |
| 20260506140014 | 61 | 310 | 2.0 | 2.0 | 0.00 | 0.11 | 0.11 | 91 | 1006.9 |
| 20260506135511 | 60 | 36 | 1.0 | 2.0 | 0.05 | 0.11 | 0.11 | 92 | 1007.0 |
| 20260506135007 | 60 | 54 | 0.0 | 1.0 | 0.05 | 0.11 | 0.11 | 93 | 1006.8 |
| 20260506134504 | 60 | 5 | 0.0 | 0.0 | 0.00 | 0.10 | 0.10 | 93 | 1006.7 |
| 20260506134000 | 60 | 358 | 0.0 | 0.0 | 0.07 | 0.10 | 0.10 | 92 | 1006.7 |
| 20260506133457 | 60 | 14 | 0.0 | 0.0 | 0.12 | 0.10 | 0.10 | 92 | 1006.8 |
| 20260506132954 | 60 | 347 | 1.0 | 1.0 | 0.12 | 0.09 | 0.09 | 92 | 1006.8 |
| 20260506132451 | 60 | 279 | 0.0 | 0.0 | 0.12 | 0.08 | 0.08 | 91 | 1006.8 |
| 20260506131948 | 60 | 45 | 0.0 | 1.0 | 0.05 | 0.07 | 0.07 | 92 | 1006.6 |
| 20260506131445 | 60 | 30 | 2.0 | 3.0 | 0.00 | 0.06 | 0.06 | 92 | 1006.8 |
| 20260506130942 | 60 | 313 | 0.0 | 0.0 | 0.00 | 0.06 | 0.06 | 92 | 1007.0 |
| 20260506130438 | 60 | 23 | 0.0 | 1.0 | 0.00 | 0.06 | 0.06 | 91 | 1006.9 |
| 20260506125936 | 60 | 284 | 0.0 | 0.0 | 0.00 | 0.06 | 0.06 | 90 | 1006.9 |
| 20260506125434 | 60 | 8 | 2.0 | 3.0 | 0.00 | 0.06 | 0.06 | 89 | 1006.8 |
| 20260506124932 | 60 | 41 | 2.0 | 2.0 | 0.07 | 0.06 | 0.06 | 90 | 1006.8 |
| 20260506124429 | 60 | 73 | 1.0 | 1.0 | 0.07 | 0.06 | 0.06 | 92 | 1007.1 |
| 20260506123927 | 60 | 10 | 0.0 | 1.0 | 0.00 | 0.05 | 0.05 | 92 | 1006.8 |
| 20260506123425 | 60 | 5 | 0.0 | 0.0 | 0.00 | 0.05 | 0.05 | 91 | 1007.1 |
| 20260506122922 | 60 | 66 | 2.0 | 3.0 | 0.05 | 0.05 | 0.05 | 90 | 1006.9 |
| 20260506122419 | 60 | 220 | 1.0 | 1.0 | 0.05 | 0.05 | 0.05 | 90 | 1007.2 |
| 20260506121917 | 60 | 330 | 1.0 | 1.0 | 0.00 | 0.04 | 0.04 | 89 | 1007.2 |
| 20260506121414 | 59 | 281 | 0.0 | 1.0 | 0.07 | 0.04 | 0.04 | 90 | 1007.3 |
| 20260506120911 | 60 | 15 | 0.0 | 0.0 | 0.12 | 0.04 | 0.04 | 90 | 1007.2 |
| 20260506120408 | 60 | 249 | 1.0 | 1.0 | 0.05 | 0.03 | 0.03 | 89 | 1007.3 |
| 20260506115906 | 60 | 10 | 2.0 | 2.0 | 0.00 | 0.02 | 0.02 | 89 | 1007.5 |
| 20260506115404 | 60 | 154 | 1.0 | 2.0 | 0.00 | 0.02 | 0.02 | 88 | 1007.3 |
| 20260506114902 | 60 | 176 | 1.0 | 1.0 | 0.07 | 0.02 | 0.02 | 86 | 1007.4 |
| 20260506114359 | 60 | 347 | 2.0 | 2.0 | 0.07 | 0.02 | 0.02 | 85 | 1007.3 |
| 20260506113858 | 61 | 209 | 1.0 | 1.0 | 0.05 | 0.01 | 0.01 | 83 | 1007.3 |
| 20260506113354 | 62 | 213 | 1.0 | 2.0 | 0.05 | 0.01 | 0.01 | 80 | 1007.1 |
| 20260506112851 | 63 | 220 | 0.0 | 0.0 | 0.00 | 0.00 | 0.00 | 77 | 1006.9 |
| 20260506112348 | 63 | 284 | 0.0 | 1.0 | 0.00 | 0.00 | 0.00 | 75 | 1006.8 |
| 20260506111845 | 63 | 201 | 0.0 | 0.0 | 0.00 | 0.00 | 0.00 | 72 | 1006.9 |
| 20260506111344 | 63 | 260 | 3.0 | 6.0 | 0.00 | 0.00 | 0.00 | 71 | 1006.8 |
| 20260506110841 | 63 | 260 | 0.0 | 0.0 | 0.00 | 0.00 | 0.00 | 72 | 1006.9 |
| 20260506110338 | 63 | 72 | 0.0 | 0.0 | 0.00 | 0.00 | 0.00 | 70 | 1006.7 |
| 20260506105835 | 63 | 277 | 0.0 | 0.0 | 0.00 | 0.00 | 0.00 | 70 | 1006.6 |
| 20260506105331 | 63 | 323 | 0.0 | 1.0 | 0.00 | 0.00 | 0.00 | 70 | 1006.5 |
| 20260506104829 | 64 | 136 | 1.0 | 1.0 | 0.00 | 0.00 | 0.00 | 70 | 1006.6 |
| 20260506104326 | 64 | 285 | 1.0 | 1.0 | 0.00 | 0.00 | 0.00 | 68 | 1006.4 |
| 20260506103824 | 64 | 334 | 0.0 | 0.0 | 0.00 | 0.00 | 0.00 | 66 | 1006.3 |
| 20260506103321 | 64 | 329 | 0.0 | 0.0 | 0.00 | 0.00 | 0.00 | 65 | 1006.2 |
| 20260506102819 | 64 | 201 | 0.0 | 0.0 | 0.00 | 0.00 | 0.00 | 65 | 1006.2 |
| 20260506102316 | 64 | 265 | 0.0 | 1.0 | 0.00 | 0.00 | 0.00 | 64 | 1006.2 |
| 20260506101813 | 64 | 284 | 0.0 | 0.0 | 0.00 | 0.00 | 0.00 | 64 | 1006.1 |
| 20260506101309 | 64 | 273 | 1.0 | 2.0 | 0.00 | 0.00 | 0.00 | 65 | 1006.0 |
| 20260506100807 | 64 | 189 | 0.0 | 0.0 | 0.00 | 0.00 | 0.00 | 64 | 1006.0 |
| 20260506100305 | 65 | 347 | 0.0 | 0.0 | 0.00 | 0.00 | 0.00 | 63 | 1006.0 |
| 20260506095804 | 65 | 301 | 1.0 | 1.0 | 0.00 | 0.00 | 0.00 | 63 | 1006.1 |
| 20260506095300 | 65 | 275 | 1.0 | 2.0 | 0.00 | 0.00 | 0.00 | 63 | 1006.0 |
| 20260506094757 | 65 | 181 | 0.0 | 0.0 | 0.00 | 0.00 | 0.00 | 63 | 1005.9 |
| 20260506094255 | 65 | 9 | 2.0 | 3.0 | 0.00 | 0.00 | 0.00 | 62 | 1005.8 |
| 20260506093753 | 65 | 179 | 0.0 | 0.0 | 0.00 | 0.00 | 0.00 | 62 | 1005.9 |
| 20260506093250 | 65 | 226 | 0.0 | 1.0 | 0.00 | 0.00 | 0.00 | 62 | 1006.1 |
| 20260506092748 | 65 | 283 | 0.0 | 1.0 | 0.00 | 0.00 | 0.00 | 62 | 1006.0 |
| 20260506092246 | 65 | 118 | 1.0 | 2.0 | 0.00 | 0.00 | 0.00 | 63 | 1006.0 |
| 20260506091743 | 65 | 322 | 0.0 | 1.0 | 0.00 | 0.00 | 0.00 | 61 | 1006.1 |
| 20260506091240 | 66 | 204 | 1.0 | 2.0 | 0.00 | 0.00 | 0.00 | 60 | 1006.3 |
| 20260506090738 | 65 | 227 | 0.0 | 0.0 | 0.00 | 0.00 | 0.00 | 61 | 1006.2 |
| 20260506090235 | 65 | 265 | 1.0 | 1.0 | 0.00 | 0.00 | 0.00 | 61 | 1006.3 |
| 20260506085731 | 66 | 281 | 1.0 | 1.0 | 0.00 | 0.00 | 0.00 | 60 | 1006.4 |
| 20260506085228 | 66 | 229 | 0.0 | 1.0 | 0.00 | 0.00 | 0.00 | 59 | 1006.4 |
| 20260506084724 | 66 | 95 | 0.0 | 1.0 | 0.00 | 0.00 | 0.00 | 58 | 1006.4 |
| 20260506084221 | 65 | 299 | 0.0 | 1.0 | 0.00 | 0.00 | 0.00 | 59 | 1006.3 |
| 20260506083718 | 66 | 186 | 0.0 | 1.0 | 0.00 | 0.00 | 0.00 | 58 | 1006.5 |
| 20260506083216 | 65 | 329 | 2.0 | 2.0 | 0.00 | 0.00 | 0.00 | 58 | 1006.3 |
| 20260506082713 | 65 | 49 | 1.0 | 2.0 | 0.00 | 0.00 | 0.00 | 59 | 1006.3 |
| 20260506082208 | 65 | 281 | 1.0 | 2.0 | 0.00 | 0.00 | 0.00 | 59 | 1006.2 |
| 20260506081706 | 65 | 201 | 0.0 | 0.0 | 0.00 | 0.00 | 0.00 | 59 | 1006.3 |
| 20260506081203 | 65 | 273 | 0.0 | 0.0 | 0.00 | 0.00 | 0.00 | 59 | 1006.1 |
| 20260506080701 | 65 | 171 | 0.0 | 0.0 | 0.00 | 0.00 | 0.00 | 57 | 1006.2 |
| 20260506080158 | 65 | 274 | 0.0 | 0.0 | 0.00 | 0.00 | 0.00 | 58 | 1006.3 |